Location: Waco, TX
(31.5480°N, 97.1670°W)
Time: 07:32:54
(UTC-05:00)

ISS - Pass Details

Date: 25 September 2022
Orbit: 414 x 417 km, 51.6° (Epoch: 01 October)

Event Time Altitude Azimuth Distance (km) Brightness Sun altitude
Rises 01:22:21 0° 301° (WNW) 2,357 - -59.3°
Reaches altitude 10° 01:24:43 10° 286° (WNW) 1,490 - -59.3°
Maximum altitude 01:27:25 23° 232° (SW) 941 - -59.3°
Drops below altitude 10° 01:30:06 10° 178° (S) 1,482 - -59.2°
Sets 01:32:27 0° 163° (SSE) 2,340 - -59.2°
